Location: Champignolles
(47.0543°N, 4.5663°E)
Time: 08:02:17
(UTC+00:00)

Cosmos 923 Rocket - Pass Details

Date: 18 April 2021
Orbit: 759 x 785 km, 74.0° (Epoch: 13 May)

Event Time Altitude Azimuth Distance (km) Brightness Sun altitude
Rises 02:52:34 0° 331° (NNW) 3,230 7.4 -18.1°
Reaches altitude 10° 02:55:05 10° 323° (NW) 2,302 6.5 -17.8°
Maximum altitude 02:59:50 37° 258° (WSW) 1,179 4.5 -17.1°
Enters shadow 03:01:43 28° 216° (SW) 1,414 4.8 -16.9°
